Weather History for KMLB - July, 2013

Change the Weather History Date:

Thursday, July 4, 2013

  Actual Average Record
Temperature  
Mean Temperature 83 °F 81 °F  
Max Temperature 89 °F 90 °F 98 °F (1963)
Min Temperature 77 °F 72 °F 68 °F (1970)
Degree Days  
Heating Degree Days 0 0  
Month to date heating degree days 0 0  
Since 1 June heating degree days 0 0  
Since 1 July heating degree days 0 0  
Cooling Degree Days 18 16  
Month to date cooling degree days 66 64  
Year to date cooling degree days 1425 1252  
Since 1 June cooling degree days 564 526  
Growing Degree Days 32 (Base 50)    
Moisture  
Dew Point 73 °F    
Average Humidity 75    
Maximum Humidity 88    
Minimum Humidity 61    
Precipitation  
Precipitation T in 0.20 in 1.10 in (1961)
Month to date precipitation 0.48 0.79  
Year to date precipitation 22.55 21.00  
Sea Level Pressure  
Sea Level Pressure 30.14 in    
Wind  
Wind Speed 10 mph (SE)    
Max Wind Speed 24 mph    
Max Gust Speed 32 mph    
Visibility 10 miles    
Events      
T = Trace of Precipitation, MM = Missing Value Source: NWS Daily Summary

Daily Weather History Graph

Daily Weather History Graph

Search for Another Location

Airport or City:

Trip Planner

Search our weather history database for the weather conditions in past years. The results will help you decide how hot, cold, wet, or windy it might be!

Date:

Astronomy

Jul. 04, 2013 Rise Set
Actual Time 6:30 AM EDT 8:23 PM EDT
Civil Twilight 6:04 AM EDT 8:49 PM EDT
Nautical Twilight 5:32 AM EDT 9:21 PM EDT
Astronomical Twilight 4:58 AM EDT 9:55 PM EDT
Moon 3:39 AM EDT (7/4) 5:31 PM EDT (7/4)
Length of Visible Light 14h 45m
Length of Day
13h 52m
Waning Crescent, 11% of the Moon is Illuminated
Jul 4
Waning Crescent
Jul 8
New
Jul 15
First Quarter
Jul 22
Full
Jul 29
Last Quarter

Hourly Weather History & Observations

Time (EDT) Temp. Heat Index Dew Point Humidity Pressure Visibility Wind Dir Wind Speed Gust Speed Precip Events Conditions
12:53 AM 79.0 °F - 72.0 °F 79% 30.15 in 10.0 mi SSE 4.6 mph - N/A   Partly Cloudy
1:53 AM 78.1 °F - 72.0 °F 81% 30.14 in 9.0 mi East 3.5 mph - N/A   Partly Cloudy
2:53 AM 77.0 °F - 73.0 °F 88% 30.12 in 10.0 mi South 3.5 mph - N/A   Clear
3:53 AM 77.0 °F - 73.0 °F 88% 30.11 in 10.0 mi South 3.5 mph - N/A   Partly Cloudy
4:53 AM 77.0 °F - 71.1 °F 82% 30.11 in 10.0 mi SE 5.8 mph - 0.00 in   Mostly Cloudy
5:53 AM 77.0 °F - 72.0 °F 84% 30.11 in 10.0 mi ESE 5.8 mph - N/A   Clear
6:53 AM 77.0 °F - 73.0 °F 88% 30.12 in 10.0 mi ESE 5.8 mph - N/A   Clear
7:53 AM 80.1 °F 84.5 °F 73.9 °F 81% 30.13 in 10.0 mi ESE 8.1 mph - N/A   Clear
8:53 AM 82.9 °F 89.4 °F 73.9 °F 74% 30.14 in 10.0 mi SE 13.8 mph 21.9 mph N/A   Clear
9:53 AM 84.9 °F 91.4 °F 73.0 °F 67% 30.15 in 10.0 mi SE 11.5 mph 20.7 mph N/A   Partly Cloudy
10:53 AM 87.1 °F 95.4 °F 73.9 °F 65% 30.16 in 10.0 mi SE 16.1 mph 21.9 mph N/A   Scattered Clouds
11:53 AM 86.0 °F 93.0 °F 73.0 °F 65% 30.16 in 10.0 mi SE 15.0 mph 27.6 mph N/A   Clear
12:53 PM 88.0 °F 97.5 °F 75.0 °F 65% 30.15 in 10.0 mi ESE 16.1 mph 24.2 mph N/A   Scattered Clouds
1:53 PM 88.0 °F 96.5 °F 73.9 °F 63% 30.15 in 10.0 mi SE 15.0 mph 25.3 mph N/A   Scattered Clouds
2:53 PM 87.1 °F 95.4 °F 73.9 °F 65% 30.13 in 10.0 mi ESE 15.0 mph 26.5 mph N/A   Clear
3:53 PM 88.0 °F 97.5 °F 75.0 °F 65% 30.12 in 10.0 mi SE 18.4 mph 23.0 mph N/A   Scattered Clouds
4:53 PM 87.1 °F 95.4 °F 73.9 °F 65% 30.11 in 10.0 mi SE 19.6 mph 26.5 mph N/A   Clear
5:53 PM 84.0 °F 88.4 °F 70.0 °F 63% 30.12 in 10.0 mi SE 15.0 mph 26.5 mph N/A   Scattered Clouds
6:53 PM 82.9 °F 89.4 °F 73.9 °F 74% 30.13 in 10.0 mi ESE 13.8 mph 20.7 mph N/A   Partly Cloudy
7:53 PM 81.0 °F 84.1 °F 69.1 °F 67% 30.13 in 10.0 mi SSE 8.1 mph - N/A   Clear
8:53 PM 82.0 °F 86.7 °F 72.0 °F 71% 30.14 in 10.0 mi SE 4.6 mph - N/A   Clear
9:53 PM 80.1 °F 83.8 °F 72.0 °F 76% 30.17 in 10.0 mi ESE 8.1 mph - N/A   Clear
10:53 PM 81.0 °F 85.8 °F 73.0 °F 77% 30.17 in 10.0 mi ESE 8.1 mph - N/A   Clear
11:53 PM 80.1 °F 84.5 °F 73.9 °F 81% 30.17 in 10.0 mi ESE 6.9 mph - N/A   Clear